Time,TemperatureF,DewpointF,PressureIn,WindDirection,WindDirectionDegrees,WindSpeedMPH,WindSpeedGustMPH,Humidity,HourlyPrecipIn,Conditions,Clouds,dailyrainin,SoftwareType,DateUTC
2013-12-31 00:00:00,25.5,17.8,30.38,West,265,0.0,2.0,72,0.00,,,-99.99,meteobridge,2013-12-31 06:00:00,
2013-12-31 00:05:00,26.1,17.6,30.38,West,273,2.9,2.9,70,0.00,,,0.00,meteobridge,2013-12-31 06:05:00,
2013-12-31 00:10:00,26.4,17.6,30.38,West,280,2.0,4.0,69,0.00,,,0.00,meteobridge,2013-12-31 06:10:00,
2013-12-31 00:16:00,27.0,17.8,30.38,West,260,2.0,4.9,68,0.00,,,0.00,meteobridge,2013-12-31 06:16:00,
2013-12-31 00:21:00,27.3,18.1,30.38,West,271,2.0,8.9,68,0.00,,,0.00,meteobridge,2013-12-31 06:21:00,
2013-12-31 00:26:00,27.3,18.1,30.38,SW,234,6.0,8.9,68,0.00,,,0.00,meteobridge,2013-12-31 06:26:00,
2013-12-31 00:31:00,27.5,18.0,30.39,SW,223,0.9,6.9,67,0.00,,,0.00,meteobridge,2013-12-31 06:31:00,
2013-12-31 00:36:00,27.9,18.3,30.39,WSW,252,4.9,4.9,67,0.00,,,0.00,meteobridge,2013-12-31 06:36:00,
2013-12-31 00:42:00,27.7,18.1,30.39,WSW,248,0.0,2.0,67,0.00,,,0.00,meteobridge,2013-12-31 06:42:00,
2013-12-31 00:47:00,27.3,17.8,30.39,SW,223,2.0,2.9,67,0.00,,,0.00,meteobridge,2013-12-31 06:47:00,
2013-12-31 00:52:00,27.1,17.6,30.39,West,264,6.0,8.9,67,0.00,,,0.00,meteobridge,2013-12-31 06:52:00,
2013-12-31 00:57:00,27.3,17.8,30.40,West,279,4.0,8.9,67,0.00,,,0.00,meteobridge,2013-12-31 06:57:00,
2013-12-31 01:03:00,27.3,17.8,30.40,WSW,239,4.9,8.9,67,0.00,,,0.00,meteobridge,2013-12-31 07:03:00,
2013-12-31 01:08:00,27.7,18.1,30.40,SW,229,8.1,10.1,67,0.00,,,0.00,meteobridge,2013-12-31 07:08:00,
2013-12-31 01:14:00,27.9,18.0,30.39,West,270,2.9,10.1,66,0.00,,,0.00,meteobridge,2013-12-31 07:14:00,
2013-12-31 01:19:00,28.0,17.8,30.39,WSW,258,6.0,12.1,65,0.00,,,0.00,meteobridge,2013-12-31 07:19:00,
2013-12-31 01:24:00,28.2,18.0,30.39,West,259,2.9,6.9,65,0.00,,,0.00,meteobridge,2013-12-31 07:24:00,
2013-12-31 01:30:00,28.2,18.0,30.39,West,271,2.9,6.9,65,0.00,,,0.00,meteobridge,2013-12-31 07:30:00,
2013-12-31 01:36:00,28.0,17.8,30.39,WSW,256,2.0,6.0,65,0.00,,,0.00,meteobridge,2013-12-31 07:36:00,
2013-12-31 01:41:00,28.0,17.8,30.39,WSW,250,2.9,6.9,65,0.00,,,0.00,meteobridge,2013-12-31 07:41:00,
2013-12-31 01:46:00,28.0,17.8,30.39,WSW,238,2.0,4.9,65,0.00,,,0.00,meteobridge,2013-12-31 07:46:00,
2013-12-31 01:51:00,27.9,17.2,30.40,WSW,254,2.0,2.9,64,0.00,,,0.00,meteobridge,2013-12-31 07:51:00,
2013-12-31 01:56:00,27.7,17.4,30.40,West,269,2.9,4.9,65,0.00,,,0.00,meteobridge,2013-12-31 07:56:00,
2013-12-31 02:02:00,27.7,17.1,30.40,West,265,2.0,6.0,64,0.00,,,0.00,meteobridge,2013-12-31 08:02:00,
2013-12-31 02:07:00,27.7,17.4,30.40,WSW,250,4.0,4.9,65,0.00,,,0.00,meteobridge,2013-12-31 08:07:00,
2013-12-31 02:12:00,27.3,17.1,30.40,WSW,248,2.0,4.0,65,0.00,,,0.00,meteobridge,2013-12-31 08:12:00,
2013-12-31 02:18:00,27.1,17.2,30.40,SSW,205,2.0,2.9,66,0.00,,,0.00,meteobridge,2013-12-31 08:18:00,
2013-12-31 02:23:00,27.0,17.1,30.40,WSW,239,0.0,0.9,66,0.00,,,0.00,meteobridge,2013-12-31 08:23:00,
2013-12-31 02:28:00,26.8,16.9,30.40,WSW,256,0.9,4.0,66,0.00,,,0.00,meteobridge,2013-12-31 08:28:00,
2013-12-31 02:33:00,26.6,16.7,30.40,West,265,0.0,2.9,66,0.00,,,0.00,meteobridge,2013-12-31 08:33:00,
2013-12-31 02:38:00,26.4,16.5,30.40,WSW,257,0.0,2.0,66,0.00,,,0.00,meteobridge,2013-12-31 08:38:00,
2013-12-31 02:44:00,26.2,16.5,30.40,SW,229,0.0,0.9,66,0.00,,,0.00,meteobridge,2013-12-31 08:44:00,
2013-12-31 02:49:00,26.2,16.5,30.40,SSE,157,0.9,2.0,66,0.00,,,0.00,meteobridge,2013-12-31 08:49:00,
2013-12-31 02:54:00,26.2,16.7,30.40,SSE,157,0.0,0.9,67,0.00,,,0.00,meteobridge,2013-12-31 08:54:00,
2013-12-31 02:59:00,26.1,16.7,30.40,SSE,157,0.0,0.9,67,0.00,,,0.00,meteobridge,2013-12-31 08:59:00,
2013-12-31 03:05:00,26.1,16.7,30.39,SSE,157,0.0,0.9,67,0.00,,,0.00,meteobridge,2013-12-31 09:05:00,
2013-12-31 03:10:00,26.1,16.7,30.39,SSE,157,0.9,0.9,67,0.00,,,0.00,meteobridge,2013-12-31 09:10:00,
2013-12-31 03:16:00,26.2,16.5,30.39,SW,234,0.0,2.0,66,0.00,,,0.00,meteobridge,2013-12-31 09:16:00,
2013-12-31 03:21:00,26.4,16.5,30.40,SW,234,0.9,0.9,66,0.00,,,0.00,meteobridge,2013-12-31 09:21:00,
2013-12-31 03:26:00,26.4,16.3,30.39,SW,234,0.0,0.0,65,0.00,,,0.00,meteobridge,2013-12-31 09:26:00,
2013-12-31 03:32:00,26.2,16.2,30.40,SW,234,0.9,2.0,65,0.00,,,0.00,meteobridge,2013-12-31 09:32:00,
2013-12-31 03:37:00,25.7,16.0,30.40,SW,234,0.9,0.9,66,0.00,,,0.00,meteobridge,2013-12-31 09:37:00,
2013-12-31 03:42:00,25.2,16.2,30.40,SW,234,0.0,0.0,68,0.00,,,0.00,meteobridge,2013-12-31 09:42:00,
2013-12-31 03:47:00,24.4,15.8,30.40,SW,234,0.0,0.9,69,0.00,,,0.00,meteobridge,2013-12-31 09:47:00,
2013-12-31 03:52:00,24.3,16.0,30.40,SW,234,0.0,0.0,70,0.00,,,0.00,meteobridge,2013-12-31 09:52:00,
2013-12-31 03:57:00,24.1,15.8,30.40,SW,234,0.0,0.0,70,0.00,,,0.00,meteobridge,2013-12-31 09:57:00,
2013-12-31 04:03:00,23.7,15.6,30.40,SW,234,0.0,0.9,71,0.00,,,0.00,meteobridge,2013-12-31 10:03:00,
2013-12-31 04:08:00,23.4,15.6,30.39,SW,234,0.9,0.9,72,0.00,,,0.00,meteobridge,2013-12-31 10:08:00,
2013-12-31 04:13:00,23.2,15.8,30.39,SW,234,0.0,0.9,73,0.00,,,0.00,meteobridge,2013-12-31 10:13:00,
2013-12-31 04:18:00,22.8,15.4,30.39,SW,234,0.0,0.9,73,0.00,,,0.00,meteobridge,2013-12-31 10:18:00,
2013-12-31 04:24:00,22.5,15.4,30.39,SW,234,0.0,0.9,74,0.00,,,0.00,meteobridge,2013-12-31 10:24:00,
2013-12-31 04:29:00,22.3,15.6,30.39,SW,234,0.0,0.9,75,0.00,,,0.00,meteobridge,2013-12-31 10:29:00,
2013-12-31 04:34:00,22.1,15.4,30.38,SW,234,0.0,0.9,75,0.00,,,0.00,meteobridge,2013-12-31 10:34:00,
2013-12-31 04:39:00,21.9,15.3,30.38,SW,234,0.9,0.9,75,0.00,,,0.00,meteobridge,2013-12-31 10:39:00,
2013-12-31 04:44:00,21.4,15.1,30.38,SW,234,2.0,2.0,76,0.00,,,0.00,meteobridge,2013-12-31 10:44:00,
2013-12-31 04:49:00,20.8,15.1,30.38,SW,234,0.0,2.0,78,0.00,,,0.00,meteobridge,2013-12-31 10:49:00,
2013-12-31 04:55:00,20.3,14.9,30.39,SW,234,0.0,0.0,79,0.00,,,0.00,meteobridge,2013-12-31 10:55:00,
2013-12-31 05:00:00,20.1,14.9,30.39,SW,234,0.0,0.9,80,0.00,,,0.00,meteobridge,2013-12-31 11:00:00,
2013-12-31 05:05:00,20.1,15.3,30.39,SW,234,0.0,0.0,81,0.00,,,0.00,meteobridge,2013-12-31 11:05:00,
2013-12-31 05:10:00,20.1,15.3,30.39,SW,234,0.9,0.9,81,0.00,,,0.00,meteobridge,2013-12-31 11:10:00,
2013-12-31 05:16:00,20.1,15.3,30.38,SW,234,0.9,0.9,81,0.00,,,0.00,meteobridge,2013-12-31 11:16:00,
2013-12-31 05:21:00,19.8,15.1,30.39,SW,234,0.9,0.9,82,0.00,,,0.00,meteobridge,2013-12-31 11:21:00,
2013-12-31 05:26:00,19.4,14.7,30.38,SW,234,0.9,0.9,82,0.00,,,0.00,meteobridge,2013-12-31 11:26:00,
2013-12-31 05:31:00,19.2,14.7,30.38,SW,234,0.0,0.9,82,0.00,,,0.00,meteobridge,2013-12-31 11:31:00,
2013-12-31 05:37:00,19.0,15.1,30.39,SW,234,0.0,0.9,84,0.00,,,0.00,meteobridge,2013-12-31 11:37:00,
2013-12-31 05:43:00,18.7,14.7,30.39,SW,234,0.9,0.9,84,0.00,,,0.00,meteobridge,2013-12-31 11:43:00,
2013-12-31 05:50:00,18.3,14.5,30.39,SW,234,0.0,0.0,85,0.00,,,0.00,meteobridge,2013-12-31 11:50:00,
2013-12-31 05:55:00,18.1,14.4,30.39,SW,234,0.0,0.9,85,0.00,,,0.00,meteobridge,2013-12-31 11:55:00,
2013-12-31 06:00:00,18.0,14.2,30.39,SW,234,0.0,0.9,85,0.00,,,0.00,meteobridge,2013-12-31 12:00:00,
2013-12-31 06:08:00,17.8,14.4,30.39,SW,234,0.9,0.9,86,0.00,,,0.00,meteobridge,2013-12-31 12:08:00,
2013-12-31 06:13:00,17.6,14.2,30.39,SW,234,0.9,0.9,86,0.00,,,0.00,meteobridge,2013-12-31 12:13:00,
2013-12-31 06:18:00,17.4,14.5,30.39,SW,234,0.9,0.9,88,0.00,,,0.00,meteobridge,2013-12-31 12:18:00,
2013-12-31 06:23:00,17.4,14.5,30.39,SW,234,0.9,2.0,88,0.00,,,0.00,meteobridge,2013-12-31 12:23:00,
2013-12-31 06:29:00,17.6,14.7,30.39,SW,234,2.0,2.0,88,0.00,,,0.00,meteobridge,2013-12-31 12:29:00,
2013-12-31 06:34:00,17.6,14.7,30.39,SSW,211,0.9,2.0,88,0.00,,,0.00,meteobridge,2013-12-31 12:34:00,
2013-12-31 06:39:00,17.8,14.9,30.39,SSW,211,0.9,2.0,88,0.00,,,0.00,meteobridge,2013-12-31 12:39:00,
2013-12-31 06:44:00,18.0,15.1,30.39,SSW,192,2.0,2.0,88,0.00,,,0.00,meteobridge,2013-12-31 12:44:00,
2013-12-31 06:50:00,18.1,15.3,30.39,South,180,0.9,2.0,88,0.00,,,0.00,meteobridge,2013-12-31 12:50:00,
2013-12-31 06:55:00,18.3,15.4,30.39,South,180,2.0,2.0,88,0.00,,,0.00,meteobridge,2013-12-31 12:55:00,
2013-12-31 07:00:00,18.3,15.1,30.39,South,180,0.9,2.0,87,0.00,,,0.00,meteobridge,2013-12-31 13:00:00,
2013-12-31 07:05:00,18.9,15.6,30.40,South,180,0.0,2.0,87,0.00,,,0.00,meteobridge,2013-12-31 13:05:00,
2013-12-31 07:10:00,18.5,15.1,30.40,South,180,0.0,0.9,86,0.00,,,0.00,meteobridge,2013-12-31 13:10:00,
2013-12-31 07:16:00,18.1,14.9,30.40,South,180,0.9,2.0,87,0.00,,,0.00,meteobridge,2013-12-31 13:16:00,
2013-12-31 07:21:00,18.0,15.1,30.40,South,180,0.9,2.0,88,0.00,,,0.00,meteobridge,2013-12-31 13:21:00,
2013-12-31 07:26:00,17.8,15.1,30.40,South,180,0.9,0.9,89,0.00,,,0.00,meteobridge,2013-12-31 13:26:00,
2013-12-31 07:32:00,17.8,15.1,30.40,South,180,2.0,2.0,89,0.00,,,0.00,meteobridge,2013-12-31 13:32:00,
2013-12-31 07:37:00,17.8,15.3,30.40,South,178,0.9,2.0,90,0.00,,,0.00,meteobridge,2013-12-31 13:37:00,
2013-12-31 07:43:00,18.0,15.4,30.40,South,173,2.0,2.0,90,0.00,,,0.00,meteobridge,2013-12-31 13:43:00,
2013-12-31 07:48:00,18.5,16.0,30.40,South,173,2.0,2.0,90,0.00,,,0.00,meteobridge,2013-12-31 13:48:00,
2013-12-31 07:53:00,19.0,16.3,30.40,South,173,0.9,2.0,89,0.00,,,0.00,meteobridge,2013-12-31 13:53:00,
2013-12-31 07:58:00,19.6,16.9,30.40,South,173,0.9,2.0,89,0.00,,,0.00,meteobridge,2013-12-31 13:58:00,
2013-12-31 08:04:00,20.5,17.2,30.40,South,173,0.9,2.0,87,0.00,,,0.00,meteobridge,2013-12-31 14:04:00,
2013-12-31 08:09:00,21.4,17.8,30.40,South,173,0.9,2.0,86,0.00,,,0.00,meteobridge,2013-12-31 14:09:00,
2013-12-31 08:14:00,22.1,18.5,30.40,SSE,156,2.9,4.9,86,0.00,,,0.00,meteobridge,2013-12-31 14:14:00,
2013-12-31 08:19:00,23.2,19.0,30.40,SE,146,4.0,4.0,84,0.00,,,0.00,meteobridge,2013-12-31 14:19:00,
2013-12-31 08:24:00,24.3,19.8,30.40,SSE,148,2.0,4.0,83,0.00,,,0.00,meteobridge,2013-12-31 14:24:00,
2013-12-31 08:30:00,25.3,20.3,30.40,SE,134,2.9,4.0,81,0.00,,,0.00,meteobridge,2013-12-31 14:30:00,
2013-12-31 08:35:00,26.2,20.7,30.40,SSE,154,2.0,4.9,79,0.00,,,0.00,meteobridge,2013-12-31 14:35:00,
2013-12-31 08:40:00,27.1,21.2,30.40,SSE,150,2.0,6.0,78,0.00,,,0.00,meteobridge,2013-12-31 14:40:00,
2013-12-31 08:45:00,28.2,21.9,30.40,SSE,166,2.9,4.0,77,0.00,,,0.00,meteobridge,2013-12-31 14:45:00,
2013-12-31 08:50:00,28.9,22.3,30.39,SSE,160,2.0,6.0,76,0.00,,,0.00,meteobridge,2013-12-31 14:50:00,
2013-12-31 08:56:00,29.8,22.8,30.40,SSE,147,0.9,6.0,75,0.00,,,0.00,meteobridge,2013-12-31 14:56:00,
2013-12-31 09:01:00,30.4,22.8,30.40,SSW,204,0.9,2.9,73,0.00,,,0.00,meteobridge,2013-12-31 15:01:00,
2013-12-31 09:06:00,30.9,23.5,30.39,South,173,2.0,4.0,74,0.00,,,0.00,meteobridge,2013-12-31 15:06:00,
2013-12-31 09:11:00,31.6,23.7,30.40,South,178,2.9,2.9,72,0.00,,,0.00,meteobridge,2013-12-31 15:11:00,
2013-12-31 09:16:00,32.4,24.1,30.40,South,178,2.0,2.9,71,0.00,,,0.00,meteobridge,2013-12-31 15:16:00,
2013-12-31 09:22:00,32.9,23.9,30.40,South,186,2.9,2.9,69,0.00,,,0.00,meteobridge,2013-12-31 15:22:00,
2013-12-31 09:27:00,33.4,24.4,30.40,South,189,2.0,2.9,69,0.00,,,0.00,meteobridge,2013-12-31 15:27:00,
2013-12-31 09:32:00,34.2,24.6,30.39,SE,144,4.9,6.0,68,0.00,,,0.00,meteobridge,2013-12-31 15:32:00,
2013-12-31 09:37:00,35.1,25.2,30.39,SE,145,0.9,4.0,67,0.00,,,0.00,meteobridge,2013-12-31 15:37:00,
2013-12-31 09:42:00,36.0,25.7,30.39,SSW,194,4.0,6.0,66,0.00,,,0.00,meteobridge,2013-12-31 15:42:00,
2013-12-31 09:49:00,36.1,25.2,30.40,SW,227,4.0,6.9,64,0.00,,,0.00,meteobridge,2013-12-31 15:49:00,
2013-12-31 09:54:00,36.7,26.1,30.40,SE,138,4.9,6.9,65,0.00,,,0.00,meteobridge,2013-12-31 15:54:00,
2013-12-31 09:59:00,37.0,25.7,30.40,South,189,2.9,4.9,63,0.00,,,0.00,meteobridge,2013-12-31 15:59:00,
2013-12-31 10:04:00,37.9,26.4,30.40,SSE,165,2.0,4.9,63,0.00,,,0.00,meteobridge,2013-12-31 16:04:00,
2013-12-31 10:09:00,38.8,27.3,30.39,South,175,4.0,4.0,63,0.00,,,0.00,meteobridge,2013-12-31 16:09:00,
2013-12-31 10:15:00,39.4,27.1,30.39,South,176,2.9,4.9,61,0.00,,,0.00,meteobridge,2013-12-31 16:15:00,
2013-12-31 10:20:00,40.3,27.5,30.38,South,190,2.0,4.0,60,0.00,,,0.00,meteobridge,2013-12-31 16:20:00,
2013-12-31 10:25:00,41.2,27.9,30.38,SSW,194,2.0,6.0,59,0.00,,,0.00,meteobridge,2013-12-31 16:25:00,
2013-12-31 10:30:00,42.1,28.4,30.38,SSW,213,2.9,6.0,58,0.00,,,0.00,meteobridge,2013-12-31 16:30:00,
2013-12-31 10:35:00,42.8,29.1,30.37,SSW,205,2.9,4.0,58,0.00,,,0.00,meteobridge,2013-12-31 16:35:00,
2013-12-31 10:40:00,43.9,28.8,30.37,South,184,2.0,4.0,55,0.00,,,0.00,meteobridge,2013-12-31 16:40:00,
2013-12-31 10:46:00,44.8,29.1,30.37,South,185,2.0,6.0,54,0.00,,,0.00,meteobridge,2013-12-31 16:46:00,
2013-12-31 10:51:00,45.9,28.8,30.37,SSE,164,2.0,8.1,51,0.00,,,0.00,meteobridge,2013-12-31 16:51:00,
2013-12-31 10:56:00,46.8,29.1,30.36,South,170,4.0,4.0,50,0.00,,,0.00,meteobridge,2013-12-31 16:56:00,
2013-12-31 11:01:00,47.3,29.1,30.36,SSE,159,0.9,6.0,49,0.00,,,0.00,meteobridge,2013-12-31 17:01:00,
2013-12-31 11:06:00,47.8,29.1,30.35,SSW,193,2.9,6.0,48,0.00,,,0.00,meteobridge,2013-12-31 17:06:00,
2013-12-31 11:11:00,48.7,29.5,30.34,SSE,162,4.9,8.1,47,0.00,,,0.00,meteobridge,2013-12-31 17:11:00,
2013-12-31 11:17:00,49.3,28.8,30.34,SW,220,4.9,4.9,45,0.00,,,0.00,meteobridge,2013-12-31 17:17:00,
2013-12-31 11:23:00,49.5,29.5,30.34,SSW,205,4.0,6.0,46,0.00,,,0.00,meteobridge,2013-12-31 17:23:00,
2013-12-31 11:28:00,49.8,28.8,30.34,SSW,209,4.0,6.0,44,0.00,,,0.00,meteobridge,2013-12-31 17:28:00,
2013-12-31 11:33:00,50.4,29.3,30.33,WSW,246,4.0,8.9,44,0.00,,,0.00,meteobridge,2013-12-31 17:33:00,
2013-12-31 11:38:00,50.5,30.0,30.33,SSW,204,4.9,6.9,45,0.00,,,0.00,meteobridge,2013-12-31 17:38:00,
2013-12-31 11:44:00,51.1,29.3,30.32,SW,223,4.9,6.0,43,0.00,,,0.00,meteobridge,2013-12-31 17:44:00,
2013-12-31 11:49:00,51.3,28.9,30.32,SE,143,2.9,6.0,42,0.00,,,0.00,meteobridge,2013-12-31 17:49:00,
2013-12-31 11:54:00,51.8,28.8,30.32,South,173,6.0,6.0,41,0.00,,,0.00,meteobridge,2013-12-31 17:54:00,
2013-12-31 11:59:00,52.2,29.1,30.31,SSW,198,2.9,6.9,41,0.00,,,0.00,meteobridge,2013-12-31 17:59:00,
2013-12-31 12:04:00,52.3,29.3,30.31,South,177,0.9,10.1,41,0.00,,,0.00,meteobridge,2013-12-31 18:04:00,
2013-12-31 12:10:00,52.9,29.3,30.31,SSW,202,2.0,4.9,40,0.00,,,0.00,meteobridge,2013-12-31 18:10:00,
2013-12-31 12:15:00,53.2,28.9,30.30,SW,214,6.0,6.9,39,0.00,,,0.00,meteobridge,2013-12-31 18:15:00,
2013-12-31 12:20:00,53.2,29.5,30.29,WSW,250,6.9,8.1,40,0.00,,,0.00,meteobridge,2013-12-31 18:20:00,
2013-12-31 12:25:00,53.2,28.9,30.29,SSW,196,4.9,8.1,39,0.00,,,0.00,meteobridge,2013-12-31 18:25:00,
2013-12-31 12:30:00,53.8,29.5,30.29,SSW,202,2.0,6.9,39,0.00,,,0.00,meteobridge,2013-12-31 18:30:00,
2013-12-31 12:35:00,54.1,29.1,30.29,South,181,4.0,8.1,38,0.00,,,0.00,meteobridge,2013-12-31 18:35:00,
2013-12-31 12:40:00,54.3,29.3,30.28,South,171,6.0,6.0,38,0.00,,,0.00,meteobridge,2013-12-31 18:40:00,
2013-12-31 12:45:00,54.3,28.6,30.28,South,190,2.9,8.1,37,0.00,,,0.00,meteobridge,2013-12-31 18:45:00,
2013-12-31 12:50:00,54.3,28.6,30.27,SW,225,2.9,8.1,37,0.00,,,0.00,meteobridge,2013-12-31 18:50:00,
2013-12-31 12:56:00,54.7,30.2,30.27,SW,222,2.9,4.9,39,0.00,,,0.00,meteobridge,2013-12-31 18:56:00,
2013-12-31 13:01:00,54.9,30.4,30.27,SSW,206,0.9,4.9,39,0.00,,,0.00,meteobridge,2013-12-31 19:01:00,
2013-12-31 13:06:00,55.0,29.3,30.27,SSW,207,2.0,4.9,37,0.00,,,0.00,meteobridge,2013-12-31 19:06:00,
2013-12-31 13:11:00,55.6,30.4,30.27,SSW,196,2.0,4.9,38,0.00,,,0.00,meteobridge,2013-12-31 19:11:00,
2013-12-31 13:16:00,55.8,29.1,30.26,SW,223,4.0,8.1,36,0.00,,,0.00,meteobridge,2013-12-31 19:16:00,
2013-12-31 13:21:00,55.8,29.1,30.26,SW,216,6.9,8.9,36,0.00,,,0.00,meteobridge,2013-12-31 19:21:00,
2013-12-31 13:27:00,55.8,29.1,30.25,South,171,6.0,6.9,36,0.00,,,0.00,meteobridge,2013-12-31 19:27:00,
2013-12-31 13:32:00,55.8,29.1,30.25,SSW,211,4.0,6.9,36,0.00,,,0.00,meteobridge,2013-12-31 19:32:00,
2013-12-31 13:37:00,55.8,29.1,30.25,SSW,211,2.0,6.9,36,0.00,,,0.00,meteobridge,2013-12-31 19:37:00,
2013-12-31 13:42:00,55.9,29.3,30.24,SW,235,2.9,6.0,36,0.00,,,0.00,meteobridge,2013-12-31 19:42:00,
2013-12-31 13:47:00,56.3,29.7,30.24,SSW,209,6.0,6.9,36,0.00,,,0.00,meteobridge,2013-12-31 19:47:00,
2013-12-31 13:52:00,56.1,28.8,30.24,SW,217,8.1,8.1,35,0.00,,,0.00,meteobridge,2013-12-31 19:52:00,
2013-12-31 13:58:00,56.1,28.8,30.23,SSW,211,4.9,12.1,35,0.00,,,0.00,meteobridge,2013-12-31 19:58:00,
2013-12-31 14:04:00,56.1,28.8,30.23,SSW,207,2.9,6.9,35,0.00,,,0.00,meteobridge,2013-12-31 20:04:00,
2013-12-31 14:09:00,56.5,29.8,30.23,SSW,207,2.0,6.0,36,0.00,,,0.00,meteobridge,2013-12-31 20:09:00,
2013-12-31 14:14:00,56.8,28.8,30.22,SSW,197,4.9,10.1,34,0.00,,,0.00,meteobridge,2013-12-31 20:14:00,
2013-12-31 14:19:00,56.8,28.8,30.22,SSW,212,4.0,6.9,34,0.00,,,0.00,meteobridge,2013-12-31 20:19:00,
2013-12-31 14:24:00,57.0,28.9,30.22,SSW,198,2.9,6.0,34,0.00,,,0.00,meteobridge,2013-12-31 20:24:00,
2013-12-31 14:29:00,57.0,28.9,30.22,SW,231,6.9,8.1,34,0.00,,,0.00,meteobridge,2013-12-31 20:29:00,
2013-12-31 14:35:00,57.0,28.9,30.21,SSW,202,4.0,4.9,34,0.00,,,0.00,meteobridge,2013-12-31 20:35:00,
2013-12-31 14:40:00,57.6,27.9,30.21,SW,218,2.9,8.1,32,0.00,,,0.00,meteobridge,2013-12-31 20:40:00,
2013-12-31 14:45:00,57.7,28.0,30.21,SSW,192,2.9,8.1,32,0.00,,,0.00,meteobridge,2013-12-31 20:45:00,
2013-12-31 14:50:00,57.6,27.1,30.21,SSE,165,8.9,11.0,31,0.00,,,0.00,meteobridge,2013-12-31 20:50:00,
2013-12-31 14:55:00,57.6,27.9,30.21,SSW,207,4.0,13.0,32,0.00,,,0.00,meteobridge,2013-12-31 20:55:00,
2013-12-31 15:00:00,57.4,27.0,30.21,SW,223,6.0,11.0,31,0.00,,,0.00,meteobridge,2013-12-31 21:00:00,
2013-12-31 15:05:00,57.4,27.0,30.21,SSW,203,6.9,8.1,31,0.00,,,0.00,meteobridge,2013-12-31 21:05:00,
2013-12-31 15:10:00,57.0,25.9,30.21,SSW,209,8.1,12.1,30,0.00,,,0.00,meteobridge,2013-12-31 21:10:00,
2013-12-31 15:16:00,57.0,26.6,30.21,SSW,207,4.9,8.1,31,0.00,,,0.00,meteobridge,2013-12-31 21:16:00,
2013-12-31 15:21:00,56.8,24.1,30.21,SW,217,6.0,10.1,28,0.00,,,0.00,meteobridge,2013-12-31 21:21:00,
2013-12-31 15:26:00,56.8,25.0,30.21,SW,219,6.9,8.9,29,0.00,,,0.00,meteobridge,2013-12-31 21:26:00,
2013-12-31 15:31:00,56.5,24.6,30.21,SSW,211,4.9,15.0,29,0.00,,,0.00,meteobridge,2013-12-31 21:31:00,
2013-12-31 15:36:00,56.1,24.3,30.21,SSW,213,4.9,10.1,29,0.00,,,0.00,meteobridge,2013-12-31 21:36:00,
2013-12-31 15:41:00,55.9,25.0,30.20,SSW,205,6.0,14.1,30,0.00,,,0.00,meteobridge,2013-12-31 21:41:00,
2013-12-31 15:46:00,55.6,25.3,30.20,SW,221,4.9,13.0,31,0.00,,,0.00,meteobridge,2013-12-31 21:46:00,
2013-12-31 15:51:00,55.0,25.0,30.20,SSW,192,4.9,17.0,31,0.00,,,0.00,meteobridge,2013-12-31 21:51:00,
2013-12-31 15:57:00,55.0,25.0,30.20,SW,223,2.9,10.1,31,0.00,,,0.00,meteobridge,2013-12-31 21:57:00,
2013-12-31 16:02:00,54.9,25.5,30.20,SW,224,6.9,8.1,32,0.00,,,0.00,meteobridge,2013-12-31 22:02:00,
2013-12-31 16:07:00,54.9,24.8,30.20,SSW,193,4.9,13.0,31,0.00,,,0.00,meteobridge,2013-12-31 22:07:00,
2013-12-31 16:12:00,54.7,25.3,30.20,SSW,196,6.0,8.1,32,0.00,,,0.00,meteobridge,2013-12-31 22:12:00,
2013-12-31 16:17:00,54.1,25.0,30.20,SSW,213,8.1,8.9,32,0.00,,,0.00,meteobridge,2013-12-31 22:17:00,
2013-12-31 16:22:00,53.8,25.3,30.20,SSW,201,2.9,8.1,33,0.00,,,0.00,meteobridge,2013-12-31 22:22:00,
2013-12-31 16:27:00,53.4,25.0,30.20,SSW,209,2.9,8.1,33,0.00,,,0.00,meteobridge,2013-12-31 22:27:00,
2013-12-31 16:32:00,53.1,24.8,30.19,SSW,208,0.9,4.9,33,0.00,,,0.00,meteobridge,2013-12-31 22:32:00,
2013-12-31 16:38:00,52.9,25.3,30.19,South,184,6.0,8.1,34,0.00,,,0.00,meteobridge,2013-12-31 22:38:00,
2013-12-31 16:43:00,52.5,25.0,30.19,SSW,200,2.0,4.0,34,0.00,,,0.00,meteobridge,2013-12-31 22:43:00,
2013-12-31 16:48:00,52.3,24.8,30.19,SSW,200,2.9,4.9,34,0.00,,,0.00,meteobridge,2013-12-31 22:48:00,
2013-12-31 16:53:00,51.8,24.3,30.19,SW,227,4.0,6.0,34,0.00,,,0.00,meteobridge,2013-12-31 22:53:00,
2013-12-31 16:58:00,51.4,24.1,30.19,SW,222,6.9,10.1,34,0.00,,,0.00,meteobridge,2013-12-31 22:58:00,
2013-12-31 17:03:00,51.3,22.5,30.19,SSW,209,4.0,8.1,32,0.00,,,0.00,meteobridge,2013-12-31 23:03:00,
2013-12-31 17:09:00,51.1,22.3,30.19,South,171,2.0,6.9,32,0.00,,,0.00,meteobridge,2013-12-31 23:09:00,
2013-12-31 17:14:00,50.5,21.7,30.19,SSW,213,2.9,8.1,32,0.00,,,0.00,meteobridge,2013-12-31 23:14:00,
2013-12-31 17:19:00,50.4,21.6,30.18,SW,221,8.1,11.0,32,0.00,,,0.00,meteobridge,2013-12-31 23:19:00,
2013-12-31 17:24:00,50.2,21.4,30.18,SSW,213,4.0,6.0,32,0.00,,,0.00,meteobridge,2013-12-31 23:24:00,
2013-12-31 17:29:00,49.6,21.0,30.18,SW,229,4.0,4.9,32,0.00,,,0.00,meteobridge,2013-12-31 23:29:00,
2013-12-31 17:35:00,49.5,20.8,30.18,SW,214,2.9,10.1,32,0.00,,,0.00,meteobridge,2013-12-31 23:35:00,
2013-12-31 17:40:00,48.9,21.0,30.18,SSW,213,0.9,4.0,33,0.00,,,0.00,meteobridge,2013-12-31 23:40:00,
2013-12-31 17:45:00,48.6,20.8,30.19,SSW,201,0.0,4.0,33,0.00,,,0.00,meteobridge,2013-12-31 23:45:00,
2013-12-31 17:51:00,48.2,21.2,30.19,SSW,197,0.9,4.9,34,0.00,,,0.00,meteobridge,2013-12-31 23:51:00,
2013-12-31 17:56:00,47.8,21.6,30.19,SSW,196,0.9,4.9,35,0.00,,,0.00,meteobridge,2013-12-31 23:56:00,
2013-12-31 18:01:00,47.5,21.9,30.19,SW,215,2.0,6.9,36,0.00,,,0.00,meteobridge,2014-01-01 00:01:00,
2013-12-31 18:08:00,47.3,21.7,30.19,SSW,198,4.0,4.9,36,0.00,,,0.00,meteobridge,2014-01-01 00:08:00,
2013-12-31 18:14:00,47.1,21.6,30.19,SW,225,4.0,6.0,36,0.00,,,0.00,meteobridge,2014-01-01 00:14:00,
2013-12-31 18:21:00,46.8,21.9,30.19,South,191,6.9,6.9,37,0.00,,,0.00,meteobridge,2014-01-01 00:21:00,
2013-12-31 18:27:00,46.8,21.9,30.19,SSW,209,2.0,4.0,37,0.00,,,0.00,meteobridge,2014-01-01 00:27:00,
2013-12-31 18:32:00,46.8,21.9,30.19,SSW,204,2.9,4.0,37,0.00,,,0.00,meteobridge,2014-01-01 00:32:00,
2013-12-31 18:37:00,46.6,21.7,30.19,SSW,205,2.0,6.0,37,0.00,,,0.00,meteobridge,2014-01-01 00:37:00,
2013-12-31 18:42:00,46.8,22.5,30.19,SSW,196,2.9,4.0,38,0.00,,,0.00,meteobridge,2014-01-01 00:42:00,
2013-12-31 18:48:00,46.6,22.3,30.20,SE,140,4.0,6.0,38,0.00,,,0.00,meteobridge,2014-01-01 00:48:00,
2013-12-31 18:53:00,46.8,22.5,30.20,SSW,199,2.9,10.1,38,0.00,,,0.00,meteobridge,2014-01-01 00:53:00,
2013-12-31 18:58:00,46.8,22.5,30.20,SSE,165,4.0,6.9,38,0.00,,,0.00,meteobridge,2014-01-01 00:58:00,
2013-12-31 19:03:00,46.9,22.6,30.20,SSW,192,2.9,4.0,38,0.00,,,0.00,meteobridge,2014-01-01 01:03:00,
2013-12-31 19:08:00,46.8,22.5,30.20,SSW,198,2.0,6.9,38,0.00,,,0.00,meteobridge,2014-01-01 01:08:00,
2013-12-31 19:14:00,46.6,23.0,30.20,SSW,205,2.0,4.0,39,0.00,,,0.00,meteobridge,2014-01-01 01:14:00,
2013-12-31 19:19:00,46.2,22.6,30.20,South,185,2.9,2.9,39,0.00,,,0.00,meteobridge,2014-01-01 01:19:00,
2013-12-31 19:24:00,45.9,22.3,30.20,South,173,2.9,4.9,39,0.00,,,0.00,meteobridge,2014-01-01 01:24:00,
2013-12-31 19:29:00,45.7,22.8,30.20,SSW,196,2.0,6.0,40,0.00,,,0.00,meteobridge,2014-01-01 01:29:00,
2013-12-31 19:34:00,45.3,23.0,30.19,SSW,193,2.0,4.9,41,0.00,,,0.00,meteobridge,2014-01-01 01:34:00,
2013-12-31 19:40:00,45.1,22.8,30.19,South,183,0.9,6.0,41,0.00,,,0.00,meteobridge,2014-01-01 01:40:00,
2013-12-31 19:46:00,44.8,23.0,30.19,SSE,163,6.0,6.0,42,0.00,,,0.00,meteobridge,2014-01-01 01:46:00,
2013-12-31 19:51:00,44.2,23.2,30.19,SSW,208,2.9,4.9,43,0.00,,,0.00,meteobridge,2014-01-01 01:51:00,
2013-12-31 19:56:00,44.1,23.0,30.19,South,175,2.9,2.9,43,0.00,,,0.00,meteobridge,2014-01-01 01:56:00,
2013-12-31 20:02:00,43.9,23.4,30.19,South,172,2.9,4.9,44,0.00,,,0.00,meteobridge,2014-01-01 02:02:00,
2013-12-31 20:07:00,43.3,23.4,30.19,SE,138,2.9,4.9,45,0.00,,,0.00,meteobridge,2014-01-01 02:07:00,
2013-12-31 20:12:00,43.0,23.5,30.18,South,186,4.9,10.1,46,0.00,,,0.00,meteobridge,2014-01-01 02:12:00,
2013-12-31 20:17:00,42.8,23.4,30.19,SSE,157,2.0,6.0,46,0.00,,,0.00,meteobridge,2014-01-01 02:17:00,
2013-12-31 20:22:00,42.4,23.7,30.19,SSE,168,4.0,4.9,47,0.00,,,0.00,meteobridge,2014-01-01 02:22:00,
2013-12-31 20:27:00,42.3,23.5,30.18,SSE,164,2.0,4.9,47,0.00,,,0.00,meteobridge,2014-01-01 02:27:00,
2013-12-31 20:33:00,42.1,23.7,30.18,SSE,154,0.9,8.9,48,0.00,,,0.00,meteobridge,2014-01-01 02:33:00,
2013-12-31 20:38:00,41.7,23.5,30.18,South,184,4.0,4.9,48,0.00,,,0.00,meteobridge,2014-01-01 02:38:00,
2013-12-31 20:43:00,41.5,23.7,30.18,SSE,166,2.9,4.0,49,0.00,,,0.00,meteobridge,2014-01-01 02:43:00,
2013-12-31 20:48:00,41.2,23.5,30.18,SSE,158,2.0,4.9,49,0.00,,,0.00,meteobridge,2014-01-01 02:48:00,
2013-12-31 20:54:00,41.2,23.5,30.18,SSE,156,2.0,4.9,49,0.00,,,0.00,meteobridge,2014-01-01 02:54:00,
2013-12-31 20:59:00,40.8,23.5,30.18,South,177,2.0,4.0,50,0.00,,,0.00,meteobridge,2014-01-01 02:59:00,
2013-12-31 21:04:00,40.6,23.5,30.18,SSE,161,4.0,6.0,50,0.00,,,0.00,meteobridge,2014-01-01 03:04:00,
2013-12-31 21:09:00,40.5,23.7,30.18,SSE,166,0.9,4.9,51,0.00,,,0.00,meteobridge,2014-01-01 03:09:00,
2013-12-31 21:14:00,40.3,24.1,30.18,South,188,2.0,4.9,52,0.00,,,0.00,meteobridge,2014-01-01 03:14:00,
2013-12-31 21:19:00,39.9,23.7,30.18,South,172,2.0,2.9,52,0.00,,,0.00,meteobridge,2014-01-01 03:19:00,
2013-12-31 21:25:00,39.7,23.5,30.19,SSE,165,2.0,4.0,52,0.00,,,0.00,meteobridge,2014-01-01 03:25:00,
2013-12-31 21:30:00,39.4,23.7,30.18,South,169,0.9,2.0,53,0.00,,,0.00,meteobridge,2014-01-01 03:30:00,
2013-12-31 21:35:00,38.8,23.5,30.18,SSE,164,0.9,2.0,54,0.00,,,0.00,meteobridge,2014-01-01 03:35:00,
2013-12-31 21:40:00,38.5,23.4,30.19,SSE,164,0.9,2.0,54,0.00,,,0.00,meteobridge,2014-01-01 03:40:00,
2013-12-31 21:46:00,37.8,23.5,30.18,SSE,164,2.0,4.0,56,0.00,,,0.00,meteobridge,2014-01-01 03:46:00,
2013-12-31 21:51:00,37.0,23.2,30.18,SSE,163,2.0,4.0,57,0.00,,,0.00,meteobridge,2014-01-01 03:51:00,
2013-12-31 21:56:00,36.7,23.4,30.18,SSE,150,2.9,2.9,58,0.00,,,0.00,meteobridge,2014-01-01 03:56:00,
2013-12-31 22:01:00,36.1,23.2,30.18,South,175,2.0,2.9,59,0.00,,,0.00,meteobridge,2014-01-01 04:01:00,
2013-12-31 22:06:00,35.8,23.2,30.19,SSE,168,2.0,2.0,60,0.00,,,0.00,meteobridge,2014-01-01 04:06:00,
2013-12-31 22:12:00,35.1,23.0,30.18,SSE,159,2.0,6.0,61,0.00,,,0.00,meteobridge,2014-01-01 04:12:00,
2013-12-31 22:17:00,34.9,23.5,30.18,South,171,2.0,4.0,63,0.00,,,0.00,meteobridge,2014-01-01 04:17:00,
2013-12-31 22:22:00,34.5,23.2,30.18,SSE,161,0.9,2.0,63,0.00,,,0.00,meteobridge,2014-01-01 04:22:00,
2013-12-31 22:27:00,34.3,23.4,30.18,SSE,153,2.9,4.9,64,0.00,,,0.00,meteobridge,2014-01-01 04:27:00,
2013-12-31 22:32:00,34.3,23.7,30.18,SSE,158,2.9,4.9,65,0.00,,,0.00,meteobridge,2014-01-01 04:32:00,
2013-12-31 22:37:00,34.5,23.9,30.17,SE,133,2.0,8.1,65,0.00,,,0.00,meteobridge,2014-01-01 04:37:00,
2013-12-31 22:43:00,34.9,24.3,30.17,SSE,153,2.9,8.9,65,0.00,,,0.00,meteobridge,2014-01-01 04:43:00,
2013-12-31 22:48:00,35.1,24.4,30.17,SSE,156,2.0,8.9,65,0.00,,,0.00,meteobridge,2014-01-01 04:48:00,
2013-12-31 22:53:00,35.2,24.6,30.16,SE,144,4.0,8.1,65,0.00,,,0.00,meteobridge,2014-01-01 04:53:00,
2013-12-31 22:58:00,35.2,24.6,30.16,SSE,165,4.0,8.1,65,0.00,,,0.00,meteobridge,2014-01-01 04:58:00,
2013-12-31 23:01:00,35.2,24.6,30.16,South,190,4.0,8.9,65,0.00,,,0.00,meteobridge,2014-01-01 05:01:00,
2013-12-31 23:03:00,35.2,24.6,30.16,SSE,148,4.0,6.9,65,0.00,,,0.00,meteobridge,2014-01-01 05:03:00,
2013-12-31 23:04:00,35.2,24.6,30.16,South,171,8.9,10.1,65,0.00,,,0.00,meteobridge,2014-01-01 05:04:00,
2013-12-31 23:07:00,35.4,24.8,30.16,SSE,160,4.0,6.9,65,0.00,,,0.00,meteobridge,2014-01-01 05:07:00,
2013-12-31 23:10:00,35.6,25.0,30.16,South,177,4.0,6.9,65,0.00,,,0.00,meteobridge,2014-01-01 05:10:00,
2013-12-31 23:15:00,35.6,24.6,30.16,SSE,153,2.9,6.9,64,0.00,,,0.00,meteobridge,2014-01-01 05:15:00,
2013-12-31 23:21:00,35.8,24.8,30.16,SSE,147,2.9,6.9,64,0.00,,,0.00,meteobridge,2014-01-01 05:21:00,
2013-12-31 23:26:00,35.8,24.8,30.16,SSE,155,2.0,6.0,64,0.00,,,0.00,meteobridge,2014-01-01 05:26:00,
2013-12-31 23:31:00,35.8,24.8,30.17,SSW,192,0.9,2.9,64,0.00,,,0.00,meteobridge,2014-01-01 05:31:00,
2013-12-31 23:36:00,35.8,24.8,30.17,South,173,2.0,2.0,64,0.00,,,0.00,meteobridge,2014-01-01 05:36:00,
2013-12-31 23:41:00,35.8,24.8,30.17,SSW,207,4.0,4.9,64,0.00,,,0.00,meteobridge,2014-01-01 05:41:00,
2013-12-31 23:42:00,35.8,24.8,30.17,SSE,162,2.0,4.9,64,0.00,,,0.00,meteobridge,2014-01-01 05:42:00,
2013-12-31 23:47:00,35.8,24.8,30.17,South,181,0.9,2.9,64,0.00,,,0.00,meteobridge,2014-01-01 05:47:00,
2013-12-31 23:53:00,35.4,24.4,30.17,South,183,0.9,2.0,64,0.00,,,0.00,meteobridge,2014-01-01 05:53:00,
2013-12-31 23:58:00,35.2,24.6,30.17,South,173,2.0,2.9,65,0.00,,,0.00,meteobridge,2014-01-01 05:58:00,